Zurück zum Katalog

THOR ABLESTAR DEB

AktivLEO
NORAD 17713·DEBRIS·🇺🇸 United States

Gestartet Jun 29, 1961 von Cape Canaveral Space Force Station

Loading…

Nächste Überflüge (nächste 24 Stunden)

TLE

AktuellSource: Space-Track

Epoche: Sep 14, 2026, 12:13 UTC

1 17713U 61015LR  26257.50970065  .00000180  00000-0  18007-3 0  9994
2 17713  66.2098  73.0555 0058721 106.1739 286.1266 13.98739588112823

Verfolge THOR ABLESTAR DEB in Echtzeit mit AllMySat

Download on the App Store